• Join FlightAware (Why Join?)
  • Login
  • US Flag 
07:16PM EDT


 

Airport Tracker/Info


-or-


 

Live Flight TrackerFlight Track Log ✈ N345BH ✈ 04-May-2013 ✈ KSDF - KAVL

Flight Track Log - Related Links

Times and Time Zones

All times are in EDT time to prevent confusion due to time zone crossing. See the N345BH flight status page for this flight to view local times or setup timezone preferences in your user account.

Time Position Orientation Groundspeed Altitude Reporting Facility
EDT Latitude Longitude Course Direction KTS MPH feet Rate Location/Type
09:05PM 37.9944 -85.5725 136° Southeast 261 300 11,300  Level Indianapolis Center
09:06PM 37.9767 -85.4733 103° East 284 327 14,900 3,540 Climbing Indianapolis Center
09:07PM 37.9308 -85.3836 123° Southeast 305 351 18,500 3,240 Climbing Indianapolis Center
09:08PM 37.8661 -85.3106 138° Southeast 309 356 21,500 2,160 Climbing Indianapolis Center
09:09PM 37.8033 -85.2353 137° Southeast 336 387 22,900 720 Climbing Indianapolis Center
09:10PM 37.7322 -85.1536 138° Southeast 343 395 23,000  Climbing Indianapolis Center
09:11PM 37.5771 -85.0113 136° Southeast  Level Estimated
09:11PM 37.6483 -85.0503 136° Southeast 361 415 23,000  Level Indianapolis Center
09:12PM 37.5714 -84.9606 137° Southeast 375 432 23,000  Level Indianapolis Center
09:13PM 37.4928 -84.8692 137° Southeast 382 440 23,000  Level Indianapolis Center
09:14PM 37.4136 -84.7778 137° Southeast 386 444 23,000  Level Indianapolis Center
09:15PM 37.3344 -84.6861 137° Southeast 387 445 23,000  Level Indianapolis Center
09:16PM 37.2558 -84.5939 137° Southeast 386 444 23,000  Level Indianapolis Center
09:17PM 37.1772 -84.5031 137° Southeast 385 443 23,000  Level Indianapolis Center
09:18PM 37.0989 -84.4092 136° Southeast 388 447 23,000  Level Indianapolis Center
09:19PM 37.0183 -84.3172 138° Southeast 390 449 23,000  Level Indianapolis Center
09:20PM 36.9397 -84.2214 136° Southeast 393 452 23,000  Level Indianapolis Center
09:21PM 36.8594 -84.1289 137° Southeast 394 453 23,000  Level Indianapolis Center
09:22PM 36.7769 -84.0386 139° Southeast 393 452 23,000  Level Indianapolis Center
09:23PM 36.6839 -83.9331 138° Southeast 391 450 23,000  Level Indianapolis Center
09:24PM 36.6033 -83.8414 138° Southeast 392 451 23,000  Level Indianapolis Center
09:25PM 36.5250 -83.7528 138° Southeast 385 443 23,000  Level Indianapolis Center
09:27PM 36.4531 -83.6719 138° Southeast 392 451 23,000  Level Indianapolis Center
09:28PM 36.3731 -83.5825 138° Southeast 388 447 23,000 -480 Level Indianapolis Center
09:28PM 36.3450 -83.5517 138° Southeast 373 429 22,400 -1,860 Descending Atlanta Center
09:29PM 36.2758 -83.4722 137° Southeast 344 396 20,500 -1,980 Descending Atlanta Center
09:30PM 36.2067 -83.3981 139° Southeast 339 390 18,500 -2,040 Descending Atlanta Center
09:31PM 36.1397 -83.3214 137° Southeast 339 390 16,500 -2,040 Descending Atlanta Center
09:32PM 36.0703 -83.2450 138° Southeast 339 390 14,500 -1,860 Descending Atlanta Center
09:33PM 35.9947 -83.1611 138° Southeast 334 384 12,800 -1,440 Descending Atlanta Center
09:34PM 35.9317 -83.0897 137° Southeast 329 379 11,700 -960 Descending Atlanta Center
09:35PM 35.8706 -83.0214 138° Southeast 310 357 10,900 -420 Descending Atlanta Center
09:36PM 35.8117 -82.9581 139° Southeast 296 341 10,900  Level Atlanta Center
09:37PM 35.7567 -82.8950 137° Southeast 281 323 10,900 -60 Level Atlanta Center
09:38PM 35.7081 -82.8342 135° Southeast 267 307 10,800 -1,200 Descending Atlanta Center
09:39PM 35.6886 -82.7500 106° East 243 280 8,600 -1,440 Descending Atlanta Center
09:40PM 35.6753 -82.6839 104° East 221 254 8,000 -960 Descending Atlanta Center
09:41PM 35.6478 -82.6408 128° Southeast 176 203 6,700 -1,260 Descending Atlanta Center
09:42PM 35.6014 -82.6161 157° South 164 189 5,500 -600 Descending Atlanta Center
09:43PM 35.5739 -82.5808 134° Southeast 164 189 5,500  Level Atlanta Center
09:48PM 35.4759 -82.5901 133° Southeast  Level FlightAware Approximate